Вернуться в каталог

STARLINK-31394

АктивенСвязьVLEO
NORAD 59185·PAYLOAD·🇺🇸 United States

Запущен Mar 10, 2024 с Cape Canaveral Space Force Station

Loading…

Ближайшие Пролёты (ближайшие 24 часа)

TLE

СвежийSource: CelesTrak SupGP

Эпоха: Sep 15, 2026, 02:26 UTC

1 59185C 24045H   26258.10187500  .00014323  00000+0  51864-3 0  2585
2 59185  43.0018  92.3465 0001472 271.3697 355.0448 15.27580875    12

Отслеживайте STARLINK-31394 в реальном времени с AllMySat

Download on the App Store